Regional Weather Roundup
Issued by NWS

Home | Current Version | Previous Version | Graphics & Text | Print | Product List | Glossary On
Versions: 1 2 3 4 5 6 7 8 9 10 11 12 13 14 15 16 17 18 19 20 21 22 23 24 25 26 27 28 29 30 31 32 33 34 35 36 37 38 39 40 41 42 43 44 45 46 47 48 49 50
348
ASUS44 KLIX 311605
RWRLA
LOUISIANA WEATHER ROUNDUP
NATIONAL WEATHER SERVICE NEW ORLEANS LA
1100 AM CDT THU JUL 31 2014

NOTE: "FAIR" INDICATES FEW OR NO CLOUDS BELOW 12,000 FEET WITH NO
      SIGNIFICANT WEATHER AND/OR OBSTRUCTIONS TO VISIBILITY.
      SKY/WX - SKY CONDITION AND SIGNIFICANT WEATHER.
      TMP - AIR TEMPERATURE.    DP   - DEWPOINT TEMPERATURE.
      RH  - RELATIVE HUMIDITY.  PRES - PRESSURE.
      HX  - HEAT INDEX.         WCI  - WIND CHILL INDEX.

*  THESE STATIONS ARE NOT NWS OR FAA STATIONS AND ARE NOT UNDER
   NWS QUALITY CONTROL.

LAZ040-048-061>063-065-066-069-311700-
SOUTHEAST LOUISIANA

CITY           SKY/WX    TMP DP  RH WIND       PRES   REMARKS
N.O. AUDUBON     N/A     90  65  43 MISG        N/A
N.O. INTL ARPT PTSUNNY   87  67  51 NE8       30.04S
N.O. LAKEFRONT MOSUNNY   83  66  56 NE8       30.05S
N.O. DOWNTOWN* PTSUNNY   84  61  45 NE3       30.05S
SLIDELL        MOSUNNY   83  62  49 NE5       30.05S
BATON ROUGE    PTSUNNY   82  65  56 NE5       30.06S
BOOTHVILLE     MOSUNNY   84  67  56 NE7       30.04F
BELLE CHASSE   PTSUNNY   86  63  45 VRB5      30.04S
BOGALUSA*      PTSUNNY   82  64  54 E3        30.08S
GALLIANO*      NOT AVBL
NEW ROADS*     FAIR      80  65  59 CALM      30.05S
GONZALES*      FAIR      80  71  75 CALM      30.05R
HAMMOND*       MOSUNNY   82  63  51 E3        30.08S
HOUMA*         PTSUNNY   88  64  45 E3        30.04S
PORT FOURCHON* PTSUNNY   84  64  51 E7        30.06S

$$

LAZ041-044-053-054-311700-
SOUTHWEST LOUISIANA

CITY           SKY/WX    TMP DP  RH WIND       PRES   REMARKS
LAKE CHARLES   PTSUNNY   84  72  67 E8        30.01F
LAFAYETTE      PTSUNNY   83  67  58 E5        30.04S
PATTERSON      PTSUNNY   82  72  69 E7        30.08R
SALT POINT       N/A     86  72  62 VRB5      30.03R
NEW IBERIA     PTSUNNY   83  69  62 E6        30.05S
CHENAULT AIRPK MOSUNNY   84  70  61 E8        30.03S

$$

LAZ027-028-311700-
CENTRAL LOUISIANA

CITY           SKY/WX    TMP DP  RH WIND       PRES   REMARKS
FORT POLK      PTSUNNY   79  65  62 E6        30.04R
ALEXANDRIA INT CLOUDY    80  64  58 SE7       30.03S
ALEXANDRIA     CLOUDY    81  67  62 E7        30.05S

$$

LAZ001-002-311700-
NORTHWEST LOUISIANA

CITY           SKY/WX    TMP DP  RH WIND       PRES   REMARKS
SHREVEPORT     LGT RAIN  71  68  90 SE7       30.05S
BARKSDALE AFB  LGT RAIN  70  68  93 SE7       30.05S
DTN SHREVEPORT LGT RAIN  71  67  87 SE7       30.05S

$$

LAZ014-016-311700-
NORTHEAST LOUISIANA

CITY           SKY/WX    TMP DP  RH WIND       PRES   REMARKS
MONROE         CLOUDY    74  65  73 VRB5      30.08R
TALLULAH       CLOUDY    77  65  66 NE6       30.08R

$$




USA.gov is the U.S. government's official web portal to all federal, state and local government web resources and services.